Location: Burzi?i
(45.0869°N, 16.0577°E)
Time: 14:39:41
(UTC+00:00)

Daily predictions for brighter satellites

Satellite Brightness Start Highest point End
(mag) Time Altitude Azimuth Time Altitude Azimuth Time Altitude Azimuth
YAOGAN 6 2.8 16:11:04 10° S 16:14:44 82° WSW 16:18:27 10° NNW
FengYun 1-2 T 4.4 16:10:25 10° SE 16:15:53 54° ENE 16:21:22 10° N
USA 305 3.8 16:13:35 10° NW 16:17:34 35° NNE 16:21:32 10° E
Cosmos 292 Rocket 3.8 16:13:47 10° SSW 16:18:34 77° ESE 16:23:25 10° NNE
Meteor 2-16 Rocket 4.5 16:14:43 10° N 16:20:45 60° ENE 16:26:45 10° SSE
Cosmos 1455 4.0 16:20:41 10° ESE 16:22:22 13° E 16:24:04 10° ENE
SeaSat 1 4.4 16:22:19 10° NE 16:23:30 11° NE 16:24:43 10° NNE
Aureole 3 Rocket 3.7 16:20:09 10° SSE 16:23:59 40° E 16:29:12 10° NNE
USA 306 3.7 16:20:06 10° NW 16:24:07 37° NNE 16:28:06 10° E
H-2A R/B 3.6 16:20:52 10° E 16:24:09 17° ENE 16:27:27 10° NNE
H-2A R/B 4.3 16:23:26 10° S 16:27:38 40° W 16:31:55 10° NNW
Okean-O 3.7 16:24:42 10° ESE 16:28:11 23° ENE 16:31:41 10° NNE
SMAP 3.3 16:24:06 10° S 16:28:45 78° WSW 16:33:25 10° NNW
Cosmos 2219 3.3 16:23:33 10° NNW 16:29:18 64° ENE 16:35:00 10° SE
USA 215 4.4 16:23:44 10° ENE 16:29:20 31° N 16:34:55 10° WNW
Cosmos 1331 Rocket 4.4 16:24:54 10° SSW 16:30:02 68° WNW 16:35:12 10° NNE
ATLAS 5 CENTAUR R/B 4.2 16:28:52 10° NW 16:30:31 12° NNW 16:32:14 10° N
FALCON 9 DEB 3.6 16:29:15 10° WSW 16:32:24 50° NNW 16:35:34 10° NE
ATLAS 2AS CENTAUR R/B 4.1 16:27:18 10° NNW 16:33:26 25° NNE 16:38:50 11° ENE
FALCON 9 DEB 3.7 16:31:19 10° WSW 16:34:25 46° NNW 16:37:27 10° NE
Cosmos 2082 4.4 16:31:11 10° NNW 16:36:24 34° NE 16:41:35 10° ESE
Lacrosse 5 3.6 16:33:02 10° NW 16:36:51 21° N 16:40:41 10° NE
AQUARIUS 4.5 16:32:32 10° S 16:37:01 73° WSW 16:41:32 10° NNW
Cosmos 1953 Rocket 3.6 16:35:27 10° N 16:39:54 86° W 16:44:21 10° S
Cosmos 1656 3.7 16:35:04 10° S 16:40:31 60° ESE 16:46:05 10° NNE
Cosmos 1244 Rocket 4.5 16:37:41 10° N 16:43:56 75° E 16:50:11 10° SSE
Cosmos 968 Rocket 3.6 16:38:54 10° NNW 16:44:01 52° ENE 16:49:02 10° SE
Cosmos 1408 3.6 16:41:37 10° NNE 16:44:43 25° ENE 16:47:49 10° SE
Cosmos 2058 Rocket 3.0 16:41:30 10° S 16:45:57 70° E 16:50:27 10° NNE
Feng Yun 1-1 Rocket 4.4 16:40:59 10° SSE 16:46:52 74° ENE 16:52:47 10° NNW
CZ-4B R/B 4.2 16:42:58 10° S 16:48:24 51° W 16:53:46 10° NNW
FALCON 9 DEB 4.0 16:46:02 10° W 16:49:07 39° NNW 16:51:36 14° NE
Cosmos 2369 4.3 16:46:23 10° SSE 16:51:26 34° ESE 16:56:31 10° NE
ADEOS Rocket 4.3 16:45:17 10° N 16:51:28 49° WNW 16:58:17 10° SW
USA 281 3.8 16:45:39 10° SSE 16:52:08 64° WSW 16:58:40 10° NNW
Cosmos 1689 Rocket 2.2 16:51:05 10° NNE 16:53:53 44° E 16:56:39 10° S
IRS-1C Rocket 4.0 16:50:08 10° SSE 16:55:21 69° ENE 17:00:37 10° N
Cosmos 1076 Rocket 4.2 16:52:52 10° NNE 16:56:37 29° ENE 17:00:22 10° SE
FALCON 9 DEB 4.4 16:55:22 10° NW 16:58:21 27° NNE 16:59:43 21° NE
FALCON 9 DEB 4.2 16:55:46 10° W 16:58:45 33° NNW 17:00:47 17° NE
CSL-04 Rocket 4.4 16:55:17 10° SE 17:00:05 31° ENE 17:04:52 10° N
Cosmos 2227 Rocket 2.1 16:54:41 10° NNW 17:00:23 84° ENE 17:06:03 10° SSE
Cosmos 1939 Rocket 2.7 16:56:40 10° SSE 17:00:36 76° ENE 17:04:30 10° N
SL-08 ROCKET BODY 4.5 16:54:35 10° N 17:00:39 60° ENE 17:06:45 10° SSE
CZ-4C R/B 4.1 16:55:40 10° NNW 17:00:39 21° NNE 17:04:27 15° ENE
Cosmos 1892 2.7 16:56:58 10° N 17:00:50 62° E 17:04:39 10° SSE
Cosmos 2263 Rocket 3.6 16:58:07 10° N 17:02:05 19° NE 17:03:25 17° ENE
Cosmos 1302 Rocket 4.4 16:57:24 10° SSW 17:02:38 69° WNW 17:07:56 10° NNE
H-2A R/B 4.5 17:02:45 10° NNW 17:05:56 22° WNW 17:09:05 10° WSW
USA 307 3.0 17:03:48 10° NW 17:08:03 59° NNE 17:10:16 26° E
COSMO-SKYMED 1 2.5 17:03:47 10° NNE 17:08:09 80° ESE 17:12:30 10° S
SAR-Lupe-4 3.8 17:06:13 10° N 17:09:48 70° WNW 17:13:20 10° SSW
Cosmos 1400 Rocket 3.6 17:07:53 10° SSW 17:11:55 56° WNW 17:15:57 10° N
USA 308 2.9 17:08:46 10° NW 17:13:02 63° NNE 17:15:03 29° ESE
Cosmos 1697 Rocket 2.7 17:08:09 10° S 17:13:39 59° ESE 17:19:11 10° NNE
Cosmos 1486 Rocket 4.0 17:08:20 10° NNW 17:13:42 86° WSW 17:19:00 10° SSE
CZ-4B R/B 3.2 17:10:50 10° N 17:13:43 31° WNW 17:16:30 10° SW
Cosmos 1825 2.6 17:12:55 10° N 17:16:29 38° ENE 17:17:29 32° ESE
ERS-2 4.1 17:14:13 10° N 17:17:27 30° WNW 17:20:40 10° SW
Helios 1A Rocket 2.8 17:13:47 10° SSE 17:17:53 79° ENE 17:22:00 10° NNW
IRS-P2 Rocket 4.5 17:14:23 10° SSE 17:19:36 78° ENE 17:24:56 10° NNW
YAOGAN 1 2.5 17:16:01 10° SSE 17:20:15 58° ENE 17:24:31 10° N
S3M 3.9 17:15:06 10° S 17:21:10 70° E 17:27:19 10° NNE
CZ-4 R/B 4.5 17:17:08 10° SSE 17:21:18 83° WSW 17:25:29 10° NNW
BREEZE-M TANK 2.8 17:16:08 10° W 17:23:31 85° SSW 17:25:00 35° ESE
Cosmos 1503 Rocket 3.9 17:18:42 10° NNW 17:23:55 68° ENE 17:29:10 10° SSE
Atlas Centaur 2 4.3 17:18:03 10° SW 17:24:51 28° S 17:30:04 16° SE
Cosmos 2315 Rocket 4.4 17:19:23 10° SSE 17:25:02 38° E 17:30:41 10° NNE
CZ-2D R/B 3.3 17:22:11 10° S 17:25:58 75° WSW 17:29:47 10° NNW
Cosmos 1812 Rocket 3.6 17:22:27 10° S 17:26:44 54° E 17:31:00 10° NNE
Meteor 2-1 Rocket 4.0 17:21:43 10° S 17:27:11 73° E 17:32:43 10° NNE
Okean O Rocket 4.5 17:24:17 10° SW 17:27:28 20° W 17:30:41 10° NW
Cosmos 1340 4.2 17:24:03 10° NNW 17:27:34 37° W 17:31:04 10° SSW
CZ-4 R/B 1.1 17:24:52 10° SSE 17:28:45 85° ENE 17:32:37 10° NNW
Cosmos 1346 Rocket 3.1 17:31:31 10° NNW 17:35:30 69° W 17:39:27 10° S
Cosmos 2058 3.0 17:32:09 10° NNW 17:36:15 73° W 17:40:20 10° S
SL-4 R/B 2.2 17:32:56 10° NW 17:36:26 46° NNE 17:36:32 46° NNE
Cosmos 1354 Rocket 3.9 17:31:27 10° NNW 17:36:45 76° ENE 17:41:00 16° SSE
Cosmos 1980 Rocket 2.3 17:31:54 10° S 17:37:17 49° ESE 17:39:22 33° ENE
SJ-11-01 4.2 17:35:51 23° SE 17:38:37 60° ENE 17:43:14 10° N
BREEZE-M DEB (TANK) 4.5 17:34:28 10° SW 17:38:47 58° SE 17:46:21 23° ENE
Cosmos 1992 Rocket 4.0 17:33:56 10° SSW 17:39:09 80° WNW 17:44:23 10° NNE
Cosmos 2151 4.2 17:35:19 10° N 17:37:30 26° NNE 17:37:30 26° NNE
Cosmos 2297 Rocket 3.5 17:34:27 10° NW 17:39:42 40° WSW 17:44:55 10° S
Meteor 2-15 Rocket 4.4 17:35:36 10° S 17:41:45 89° E 17:47:56 10° N
CZ-2C R/B 3.2 17:36:35 10° SSE 17:42:23 89° WSW 17:48:01 10° NNW
CSL-04 Debris 4.1 17:37:30 10° SSE 17:42:54 71° ENE 17:48:22 10° N
Timation 1 Rocket 4.2 17:37:05 10° NNW 17:43:07 70° ENE 17:46:16 29° SE
Cosmos 1315 Rocket 3.0 17:41:44 10° SSW 17:45:40 68° WNW 17:49:41 10° N
CRYOSAT 2 4.3 17:45:50 10° N 17:50:44 90° S 17:55:35 10° S
Ariane Rocket 4.5 17:53:41 22° NNE 17:53:41 22° NNE 17:55:59 10° N
Geosat 3.9 17:52:54 47° NE 17:54:14 69° ESE 17:59:14 10° SSW
Meteor 2-10 Rocket 4.2 17:50:24 10° SSW 17:55:34 55° WNW 18:00:36 10° N
BREEZE-M R/B 3.9 17:52:24 10° WNW 17:56:45 74° NNE 17:59:00 45° E
Cosmos 1455 3.2 17:53:53 10° SSW 17:57:32 47° WNW 18:01:14 10° N
USA 305 3.0 17:53:34 10° WNW 17:57:50 66° SW 17:58:11 62° S
SeaSat 1 2.8 18:00:38 46° NNE 18:00:38 46° NNE 18:04:46 10° NNW
Cosmos 2360 4.3 17:54:50 10° SSW 18:00:33 79° WNW 18:04:36 20° NNE
H-2A R/B 2.1 17:57:25 10° SSE 18:02:51 84° WSW 18:08:21 10° NNW
NOSS 3-4 (A) 3.8 17:56:54 10° NNW 18:03:48 62° NE 18:05:40 49° E
NOSS 3-4 (C) 3.8 17:57:00 10° NNW 18:03:54 62° NE 18:05:43 49° E
USA 306 3.2 18:00:06 10° WNW 18:04:19 59° SW 18:04:25 59° SSW
Okean-O 4.0 18:00:19 10° SSW 18:04:27 38° W 18:08:37 10° NNW
DEBRIS 4.3 17:45:05 10° WSW 18:05:00 84° NNW 18:06:53 48° ENE
MOS 1 Rocket 3.5 18:04:04 10° N 18:08:48 75° WNW 18:13:50 10° SSW
Cosmos 2278 3.6 18:05:05 10° SSW 18:10:47 88° WNW 18:12:46 43° NNE
USA 215 3.9 18:10:10 37° NE 18:11:21 40° NNE 18:17:20 10° NW
NOSS 3-3 (A) 4.4 18:06:31 10° SW 18:12:19 58° NW 18:16:10 25° NNE
NOSS 3-3 (C) 4.4 18:06:38 10° SW 18:12:25 59° NW 18:16:14 25° NNE
GEOS 3 Rocket 3.5 18:17:20 82° E 18:17:29 84° NE 18:22:54 10° NW
ATLAS 5 CENTAUR R/B 4.4 18:16:29 10° N 18:17:34 11° N 18:17:34 11° N
ARGOS 3.1 18:17:21 53° S 18:18:43 82° WSW 18:24:11 10° NNW
Cosmos 44 Rocket 3.6 18:14:54 10° SW 18:19:38 62° NW 18:19:58 60° NNW
Meteor 2-3 Rocket 4.1 18:15:10 10° N 18:19:37 52° NNE 18:19:37 52° NNE
Lacrosse 5 3.2 18:16:41 10° NW 18:20:11 28° N 18:20:11 28° N
ATLAS 2AS CENTAUR R/B 2.7 18:18:25 10° NW 18:25:56 66° NE 18:26:17 65° ENE
Cosmos 2263 Rocket 2.9 18:41:05 10° NNW 18:45:07 48° NNW 18:45:07 48° NNW
CZ-4C R/B 3.3 18:43:49 10° NNW 18:49:38 50° NNE 18:49:38 50° NNE
Atlas Centaur 2 4.5 19:07:00 10° WSW 19:12:40 25° SSW 19:12:40 25° SSW
Cosmos 1980 Rocket 3.9 19:16:38 10° WSW 19:21:13 29° WNW 19:21:13 29° WNW
